TimeMDT,TemperatureF,Dew PointF,Humidity,Sea Level PressureIn,VisibilityMPH,Wind Direction,Wind SpeedMPH,Gust SpeedMPH,PrecipitationIn,Events,Conditions,WindDirDegrees,DateUTC
12:53 AM,54.0,14.0,21,29.89,10.0,West,9.2,-,N/A,,Clear,280,2012-11-02 06:53:00
1:53 AM,50.0,12.9,23,29.89,10.0,WNW,8.1,-,N/A,,Clear,290,2012-11-02 07:53:00
2:53 AM,46.9,12.9,25,29.89,10.0,West,5.8,-,N/A,,Clear,280,2012-11-02 08:53:00
3:53 AM,48.9,14.0,25,29.88,10.0,WNW,9.2,-,N/A,,Clear,290,2012-11-02 09:53:00
4:53 AM,48.0,15.1,27,29.88,10.0,WNW,6.9,-,N/A,,Clear,300,2012-11-02 10:53:00
5:53 AM,48.9,15.1,26,29.89,10.0,WNW,12.7,-,N/A,,Clear,290,2012-11-02 11:53:00
6:53 AM,48.9,15.1,26,29.91,10.0,NW,9.2,-,N/A,,Clear,310,2012-11-02 12:53:00
7:53 AM,48.9,15.1,26,29.93,10.0,NNW,5.8,-,N/A,,Clear,340,2012-11-02 13:53:00
8:53 AM,57.0,16.0,20,29.95,10.0,North,5.8,-,N/A,,Clear,360,2012-11-02 14:53:00
9:53 AM,60.1,17.1,19,29.96,10.0,ENE,3.5,-,N/A,,Clear,70,2012-11-02 15:53:00
10:53 AM,64.0,18.0,17,29.96,10.0,NE,3.5,-,N/A,,Clear,40,2012-11-02 16:53:00
11:53 AM,70.0,17.1,13,29.92,10.0,North,9.2,-,N/A,,Clear,10,2012-11-02 17:53:00
12:53 PM,73.0,18.0,12,29.88,10.0,ENE,9.2,-,N/A,,Clear,70,2012-11-02 18:53:00
1:53 PM,75.0,19.9,13,29.85,10.0,East,6.9,-,N/A,,Clear,80,2012-11-02 19:53:00
2:53 PM,75.9,19.9,12,29.83,10.0,SE,5.8,-,N/A,,Clear,140,2012-11-02 20:53:00
3:53 PM,75.9,21.0,13,29.81,10.0,South,9.2,17.3,N/A,,Clear,170,2012-11-02 21:53:00
4:53 PM,75.0,19.9,13,29.81,10.0,South,11.5,-,N/A,,Clear,180,2012-11-02 22:53:00
5:53 PM,73.0,19.9,14,29.82,10.0,South,10.4,-,N/A,,Clear,170,2012-11-02 23:53:00
6:53 PM,70.0,21.0,16,29.83,10.0,South,8.1,-,N/A,,Clear,180,2012-11-03 00:53:00
7:53 PM,68.0,21.9,17,29.85,10.0,South,8.1,-,N/A,,Clear,170,2012-11-03 01:53:00
8:02 PM,69.8,21.2,16,30.01,2.5,South,10.4,-,N/A,,Haze,170,2012-11-03 02:02:00
8:09 PM,68.0,21.2,17,30.01,1.0,South,11.5,-,N/A,,Haze,170,2012-11-03 02:09:00
8:15 PM,68.0,21.2,17,30.01,0.8,South,10.4,-,N/A,,Haze,180,2012-11-03 02:15:00
8:33 PM,66.2,21.2,18,30.02,2.5,South,5.8,-,N/A,,Haze,180,2012-11-03 02:33:00
8:40 PM,66.2,21.2,18,30.02,10.0,South,5.8,-,N/A,,Overcast,190,2012-11-03 02:40:00
8:53 PM,64.9,21.9,19,29.86,10.0,South,4.6,-,N/A,,Scattered Clouds,190,2012-11-03 02:53:00
9:25 PM,64.4,21.2,19,30.03,6.0,WSW,4.6,-,N/A,,Haze,250,2012-11-03 03:25:00
9:31 PM,64.4,21.2,19,30.03,1.8,WSW,5.8,-,N/A,,Haze,250,2012-11-03 03:31:00
9:40 PM,62.6,21.2,20,30.04,4.0,West,6.9,-,N/A,,Haze,270,2012-11-03 03:40:00
9:53 PM,61.0,21.9,22,29.87,10.0,West,6.9,-,N/A,,Partly Cloudy,270,2012-11-03 03:53:00
10:53 PM,60.1,21.9,23,29.88,10.0,WNW,9.2,-,N/A,,Clear,300,2012-11-03 04:53:00
11:53 PM,61.0,23.0,23,29.86,10.0,NW,8.1,-,N/A,,Clear,310,2012-11-03 05:53:00